Flag for Germany Weather past 2 weeks in Hameln, Lower Saxony, Germany

Now
37 °F

Partly sunny.


Feels Like: 29 °F
Forecast: 30 / 37 °F
Wind: 13 mph from Southwest

Location: Bueckeburg

Current Time: Jan 29, 2015 at 4:32:16 PM

Latest Report: Jan 29, 2015 at 3:20 PM


Visibility: N/A

Pressure: 29.00 "Hg

Humidity: 75%

Dew point: 30 °F

Location of HamelnLocation

Historic Weather in Hameln — Graph

°F

Hameln temperature yesterday

Maximum temperature yesterday: 43 °F (at 12:20 PM)
Minimum temperature yesterday: 36 °F (at 10:20 PM)
Average temperature yesterday: 40 °F

Past Weeks' High & Low Weather Summary

 TemperatureHumidityPressure
High52 °F (Jan 15, 2:20 PM)100% (Jan 20, 6:20 AM)30.33 "Hg (Jan 20, 6:20 AM)
Low27 °F (Jan 21, 7:20 AM)60% (Jan 21, 1:20 PM)29.00 "Hg (Jan 29, 3:20 PM)
Average36 °F84%29.90 "Hg
* Reported Jan 14 3:20 PM — Jan 29 3:20 PM, Hameln, Weather by CustomWeather, © 2014

Note: Actual official high and low records may vary slightly from our data, if they occured in-between our weather recording intervals... More about our weather records

Advertising

Hameln weather history for previous 24 hours

 ConditionsComfort  
Time TempWeatherWind HumidityBarometerVisibility
3:20 PM
Jan 29
37 °FPartly sunny.13 mph75%29.00 "HgN/A
2:20 PM37 °FPartly sunny.8 mph81%29.03 "HgN/A
2:00 PM36 °FBroken clouds.8 mph93%29.03 "HgN/A
1:20 PM36 °FBroken clouds.14 mph87%29.06 "Hg5 mi
1:01 PM34 °FSnow flurries. Broken clouds.14 mph93%29.09 "Hg5 mi
12:52 PM36 °FSnow showers. Broken clouds.17 mph87%29.09 "Hg1 mi
12:20 PM34 °FSnow flurries. Broken clouds.14 mph93%29.09 "HgN/A
11:52 AM34 °FSnow flurries. Fog.13 mph93%29.12 "Hg1 mi
11:20 AM34 °FSnow flurries. Fog.15 mph93%29.15 "Hg1 mi
10:58 AM34 °FSnow flurries. Broken clouds.13 mph93%29.15 "Hg5 mi
10:20 AM36 °FSnow showers. Fog.15 mph87%29.15 "Hg1 mi
9:20 AM36 °FSnow showers. Fog.17 mph81%29.18 "Hg1 mi
8:53 AM34 °FSnow flurries. Partly sunny.16 mph87%29.18 "Hg5 mi
8:20 AM36 °FSprinkles. Partly sunny.20 mph75%29.18 "Hg4 mi
7:20 AM36 °FPassing clouds.20 mph75%29.21 "HgN/A
6:20 AM36 °FPassing clouds.21 mph75%29.21 "HgN/A
5:20 AM36 °FPassing clouds.20 mph75%29.24 "HgN/A
4:20 AM36 °FPassing clouds.17 mph75%29.30 "HgN/A
3:20 AM36 °FPassing clouds.16 mph75%29.30 "HgN/A
2:20 AM37 °FPassing clouds.17 mph75%29.30 "HgN/A
1:20 AM37 °FPartly cloudy.17 mph75%29.30 "HgN/A
12:20 AM37 °FPassing clouds.18 mph81%29.33 "HgN/A
11:20 PM
Jan 28
36 °FPassing clouds.18 mph87%29.33 "HgN/A
10:20 PM36 °FPassing clouds.16 mph81%29.33 "HgN/A
9:20 PM37 °FPassing clouds.18 mph81%29.33 "HgN/A
8:20 PM37 °FLight rain. Passing clouds.14 mph87%29.33 "HgN/A
7:47 PM39 °FRain. Low clouds.25 mph87%29.33 "Hg5 mi
7:20 PM43 °FRain. Overcast.26 mph81%29.27 "Hg5 mi
6:20 PM41 °FRain. Overcast.21 mph81%29.30 "Hg5 mi
5:58 PM41 °FRain. Overcast.21 mph81%29.33 "Hg4 mi
5:20 PM41 °FRain. Passing clouds.22 mph81%29.33 "Hg4 mi
5:04 PM41 °FRain. Passing clouds.25 mph81%29.33 "Hg4 mi
4:20 PM43 °FPartly sunny.24 mph71%29.39 "HgN/A
Weather by CustomWeather, © 2014

See weather overviewHow to use our weather pages